[[{"header":{"parameterUnit":"m.s-1","parameterCategory":1,"la1":30.2991,"la2":30.254,"lo1":-89.0895,"lo2":-89.0444,"dy":0.0017,"dx":0.0017,"nx":28,"ny":28,"refTime":"2024-06-16T21:00:00:Z","depth":0,"parameterNumber":2,"parameterNumberName":"U-component_of_WINDS"},"data":[0,0,0,0,0,0,0,0,0,0,0,0,0,0,0,0,0,0,0,0,0,0,0,0,0,0,0,0,0,0,0,0,0,0,0,0,0,0,0,0,0,0,0,0,0,0,0,0,0,0,0,0,0,0,0,0,0,0,-3.1408,-3.1407,0,-3.1374,-3.1373,-3.1373,-3.1271,-3.1269,-3.1267,-3.1265,-3.1232,-3.1234,-3.1235,0,0,0,0,0,0,0,0,0,0,0,0,0,-3.1386,-3.1387,-3.1408,-3.1407,-3.1407,-3.1374,-3.1373,-3.1373,-3.1272,-3.1269,-3.1266,-3.1263,-3.1232,-3.1233,-3.1235,0,0,0,0,0,0,0,0,0,0,0,0,0,-3.1379,-3.1387,-3.1408,-3.1352,-3.1347,-3.1374,-3.1373,-3.1373,-3.1272,-3.1269,-3.1265,-3.1262,-3.1231,-3.1233,-3.1235,-3.1314,0,0,-3.1241,-3.1242,0,0,0,0,0,0,0,0,-3.1379,-3.1379,-3.1361,-3.1356,-3.135,-3.1323,-3.1354,-3.1353,-3.1273,-3.1301,-3.1264,-3.1261,-3.1265,-3.1264,-3.1265,-3.1313,-3.1311,-3.1241,-3.1242,-3.1243,-3.1243,0,0,0,0,0,0,0,-3.138,-3.138,-3.1394,-3.1361,-3.1354,-3.133,-3.1325,-3.1353,-3.1302,-3.1298,-3.129,-3.1288,-3.1262,-3.1264,-3.1264,-3.1311,-3.1241,-3.1243,-3.1244,-3.1244,-3.142,-3.1423,0,0,0,0,0,0,-3.1388,-3.1381,-3.1395,-3.1393,-3.1356,-3.1333,-3.1327,-3.1335,-3.1302,-3.1293,-3.1291,-3.1283,-3.1262,-3.1262,-3.1262,-3.1352,-3.1243,-3.1245,-3.1246,-3.1417,-3.1421,-3.1425,0,0,0,0,0,0,-3.1388,-3.139,-3.1397,-3.1385,-3.1384,-3.1337,-3.1347,-3.1336,-3.1338,-3.1296,-3.1287,-3.1302,-3.126,-3.126,-3.1302,-3.1349,-3.1245,-3.1247,-3.1412,-3.1418,-3.1423,-3.1532,0,0,0,0,0,0,-3.1388,-3.1391,-3.142,-3.1387,-3.1385,-3.1436,-3.1349,-3.1338,-3.1341,-3.1331,-3.1304,-3.1297,-3.1257,-3.1299,-3.1303,-3.135,-3.1249,-3.1408,-3.1415,-3.1421,-3.1524,-3.1541,-3.1555,0,0,0,0,0,-3.1387,-3.1453,-3.1422,-3.1424,-3.1421,-3.1439,-3.1438,-3.1391,-3.1346,-3.1375,-3.1348,-3.1297,-3.1344,-3.1305,-3.1308,-3.1356,-3.1405,-3.1413,-3.1421,-3.1517,-3.1537,-3.1554,0,0,0,0,0,0,-3.1494,-3.1447,-3.1413,-3.1469,-3.1459,-3.1422,-3.1457,-3.1414,-3.1417,-3.1407,-3.1349,-3.1344,-3.1394,-3.1379,-3.1336,-3.143,-3.1366,-3.1375,-3.1438,-3.1457,-3.1472,-3.1474,-3.125,0,0,0,0,0,-3.1524,-3.1542,-3.1501,-3.1555,-3.1551,-3.1506,-3.1512,-3.1476,-3.1463,-3.1459,-3.1434,-3.1425,-3.1437,-3.1446,-3.1455,-3.1522,-3.1514,-3.1556,-3.1572,-3.1585,-3.1593,-3.1627,-3.1645,-3.1451,-3.1451,-3.1451,0,0,-3.1586,-3.1563,-3.1578,-3.1576,-3.1563,-3.1584,-3.1503,-3.1528,-3.1543,-3.1463,-3.15,-3.1483,-3.1468,-3.1522,-3.1545,-3.1511,-3.1645,-3.1595,-3.1605,-3.1607,-3.1637,-3.1655,-3.1672,-3.1456,-3.1455,-3.1454,0,0,-3.171,-3.1695,-3.1737,-3.1727,-3.1708,-3.1677,-3.1688,-3.1658,-3.1642,-3.1679,-3.1619,-3.1636,-3.1658,-3.165,-3.1649,-3.1769,-3.1723,-3.1774,-3.1854,-3.1887,-3.1903,-3.1916,-3.1958,-3.1974,-3.1783,-3.1783,-3.1783,0,-3.179,-3.1818,-3.1765,-3.1794,-3.1795,-3.1722,-3.1765,-3.1757,-3.1744,-3.1746,-3.1709,-3.1735,-3.172,-3.1771,-3.18,-3.1802,-3.1812,-3.1776,-3.1905,-3.1917,-3.1929,-3.1969,-3.1985,-3.1789,-3.1788,-3.1788,-3.1787,0,-3.1917,-3.1938,-3.1974,-3.1962,-3.1967,-3.2003,-3.1956,-3.1967,-3.1931,-3.1904,-3.1942,-3.1922,-3.1925,-3.1934,-3.19,-3.1981,-3.196,-3.1915,-3.1849,-3.1955,-3.1991,-3.2006,-3.1798,-3.1796,-3.1794,-3.1792,0,0,-3.2108,-3.2064,-3.2079,-3.2072,-3.2047,-3.2062,-3.2095,-3.2097,-3.2107,-3.2101,-3.2127,-3.2147,-3.2104,-3.2103,-3.2067,-3.2096,-3.2193,-3.2047,-3.2046,-3.2074,-3.228,-3.2314,-3.2333,-3.2162,-3.2165,-3.2167,-3.2281,0,-3.2224,-3.2277,-3.223,-3.2292,-3.231,-3.2241,-3.227,-3.2258,-3.2234,-3.2246,-3.2219,-3.2234,-3.2177,-3.2176,-3.2202,-3.2175,-3.2233,-3.2167,-3.2186,-3.2187,-3.2191,-3.2352,-3.2388,-3.2497,-3.2295,-3.2297,-3.2299,0,-3.2368,-3.2366,-3.243,-3.2399,-3.2405,-3.2432,-3.2429,-3.2442,-3.2427,-3.2407,-3.2406,-3.2361,-3.2392,-3.2327,-3.2369,-3.2324,-3.233,-3.2318,-3.2321,-3.2321,-3.2249,-3.2356,-3.2531,-3.2547,-3.2321,-3.2319,-3.2318,0,-3.25,-3.2514,-3.2553,-3.2549,-3.2515,-3.2535,-3.2522,-3.2504,-3.2508,-3.2506,-3.2508,-3.2511,-3.2512,-3.2516,-3.2473,-3.243,-3.252,-3.2452,-3.2505,-3.2506,-3.2526,-3.2526,-3.2704,-3.2531,-3.2531,-3.253,-3.253,0,-3.2635,-3.2677,-3.2612,-3.2636,-3.268,-3.2626,-3.2672,-3.2652,-3.2636,-3.2655,-3.2596,-3.2616,-3.2559,-3.2573,-3.254,-3.2579,-3.2581,-3.2566,-3.2556,-3.2571,-3.2573,-3.2573,-3.2564,-3.2535,-3.2534,-3.2533,-3.2532,0,-3.279,-3.2748,-3.2786,-3.275,-3.2742,-3.2777,-3.2746,-3.2768,-3.2739,-3.2765,-3.2768,-3.2724,-3.2737,-3.2695,-3.2702,-3.268,-3.2737,-3.2715,-3.2741,-3.2735,-3.279,-3.2785,-3.2975,-3.2997,-3.281,-3.2812,-3.2813,0,-3.2879,-3.2909,-3.2876,-3.2884,-3.2874,-3.2888,-3.2891,-3.2839,-3.2845,-3.283,-3.2854,-3.2862,-3.2865,-3.289,-3.2859,-3.2864,-3.2842,-3.2908,-3.2843,-3.2856,-3.2843,-3.2841,-3.2844,-3.2922,-3.2924,-3.2926,-3.2928,0,-3.3041,-3.3018,-3.3025,-3.3025,-3.303,-3.3027,-3.3021,-3.3031,-3.2975,-3.2985,-3.2997,-3.3,-3.3007,-3.3016,-3.3014,-3.3001,-3.2956,-3.2949,-3.2961,-3.2976,-3.299,-3.2982,-3.2778,-3.2944,-3.2943,-3.2941,-3.2941,-3.294,-3.3165,-3.3188,-3.3168,-3.3178,-3.3167,-3.3162,-3.318,-3.3153,-3.3162,-3.3162,-3.3131,-3.315,-3.3134,-3.3126,-3.3118,-3.3132,-3.3101,-3.312,-3.3124,-3.3129,-3.3138,-3.2988,-3.3132,-3.3131,-3.3131,-3.313,-3.313,0,-3.3324,-3.3307,-3.3316,-3.3308,-3.3316,-3.3271,-3.3261,-3.327,-3.3287,-3.3275,-3.328,-3.3294,-3.3302,-3.3272,-3.3276,-3.3293,-3.3272,-3.3296,-3.3294,-3.3291,-3.3166,-3.3154,-3.3312,-3.3312,-3.3312,-3.3312,-3.3312,-3.3312,-3.3407,-3.3444,-3.3419,-3.345,-3.3433,-3.345,-3.3448,-3.3443,-3.3433,-3.3451,-3.3457,-3.3437,-3.3418,-3.3419,-3.3425,-3.3416,-3.342,-3.3451,-3.3435,-3.3318,-3.33,-3.3283,-3.3272,-3.3453,-3.3453,-3.3559,-3.356,-3.3561]},{"header":{"parameterUnit":"m.s-1","parameterCategory":1,"la1":30.2991,"la2":30.254,"lo1":-89.0895,"lo2":-89.0444,"dy":0.0017,"dx":0.0017,"nx":28,"ny":28,"refTime":"2024-06-16T21:00:00:Z","depth":0,"parameterNumber":3,"parameterNumberName":"V-component_of_WINDS"},"data":[0,0,0,0,0,0,0,0,0,0,0,0,0,0,0,0,0,0,0,0,0,0,0,0,0,0,0,0,0,0,0,0,0,0,0,0,0,0,0,0,0,0,0,0,0,0,0,0,0,0,0,0,0,0,0,0,0,0,1.4555,1.4554,0,1.4465,1.4464,1.4463,1.4427,1.4427,1.4427,1.4427,1.4337,1.4334,1.4332,0,0,0,0,0,0,0,0,0,0,0,0,0,1.47,1.4698,1.4555,1.4554,1.4553,1.4465,1.4464,1.4463,1.4427,1.4427,1.4427,1.4427,1.4338,1.4334,1.4331,0,0,0,0,0,0,0,0,0,0,0,0,0,1.4626,1.4697,1.4556,1.4524,1.4521,1.4465,1.4464,1.4462,1.4427,1.4427,1.4427,1.4427,1.4339,1.4335,1.4331,1.43,0,0,1.4319,1.4317,0,0,0,0,0,0,0,0,1.4631,1.4621,1.453,1.4526,1.4522,1.4457,1.4482,1.4408,1.4426,1.4462,1.4427,1.4428,1.4377,1.437,1.4352,1.4296,1.4292,1.4319,1.4316,1.4315,1.4313,0,0,0,0,0,0,0,1.4636,1.4625,1.452,1.4529,1.4524,1.4516,1.4506,1.4468,1.4419,1.4459,1.4456,1.4446,1.4375,1.4356,1.435,1.4291,1.4319,1.4315,1.4313,1.4311,1.4209,1.4209,0,0,0,0,0,0,1.4646,1.4629,1.4522,1.4517,1.4578,1.4513,1.4502,1.4478,1.4419,1.4411,1.4446,1.4445,1.4362,1.4354,1.4346,1.4308,1.4315,1.4311,1.4309,1.4209,1.4209,1.4208,0,0,0,0,0,0,1.4649,1.4636,1.4526,1.4572,1.4558,1.4511,1.4484,1.4476,1.4457,1.4409,1.4401,1.4436,1.4362,1.4352,1.4313,1.4305,1.4309,1.4306,1.421,1.4209,1.4209,1.4231,0,0,0,0,0,0,1.4653,1.4638,1.4624,1.4572,1.4555,1.4493,1.4483,1.4474,1.445,1.4448,1.4397,1.4389,1.4362,1.4319,1.4309,1.4299,1.4303,1.421,1.4209,1.4209,1.4231,1.4232,1.4232,0,0,0,0,0,1.4658,1.4634,1.4624,1.4611,1.4538,1.4492,1.4483,1.4451,1.445,1.4437,1.4407,1.4391,1.4308,1.4315,1.4303,1.4293,1.4211,1.421,1.4209,1.4231,1.4232,1.4232,0,0,0,0,0,0,1.4686,1.4627,1.4615,1.4572,1.4538,1.4486,1.4468,1.4453,1.4418,1.4417,1.4381,1.4369,1.4334,1.4309,1.4319,1.4262,1.4258,1.4255,1.4279,1.4279,1.428,1.4286,1.4299,0,0,0,0,0,1.4688,1.4655,1.4605,1.4573,1.4556,1.4516,1.4495,1.4474,1.4436,1.4422,1.4388,1.4354,1.432,1.4298,1.4264,1.4228,1.4218,1.4216,1.4216,1.4217,1.4214,1.4196,1.4195,1.4206,1.4206,1.4206,0,0,1.469,1.4653,1.4635,1.4578,1.4548,1.4516,1.4503,1.4469,1.4446,1.4417,1.4378,1.4353,1.4312,1.4275,1.4256,1.4253,1.4209,1.4216,1.4217,1.4214,1.4195,1.4194,1.4193,1.4205,1.4205,1.4205,0,0,1.4677,1.4646,1.4617,1.4588,1.4544,1.4518,1.4511,1.4463,1.4445,1.4405,1.4383,1.4356,1.4298,1.427,1.4249,1.423,1.4215,1.4221,1.4223,1.4205,1.4205,1.4204,1.4198,1.4197,1.4218,1.4219,1.4219,0,1.4686,1.4636,1.4604,1.4572,1.4548,1.4521,1.4492,1.4466,1.4414,1.4399,1.4396,1.4325,1.4295,1.4252,1.4248,1.4231,1.4224,1.4225,1.4207,1.4206,1.4205,1.4199,1.4197,1.422,1.4219,1.4219,1.4219,0,1.4649,1.4615,1.4597,1.4548,1.4522,1.4492,1.4457,1.4436,1.4418,1.4393,1.4355,1.4319,1.4279,1.4267,1.4249,1.4223,1.4222,1.4214,1.4209,1.4205,1.42,1.4197,1.4221,1.4221,1.422,1.422,0,0,1.4649,1.4584,1.4578,1.4557,1.4508,1.4482,1.4452,1.4413,1.4396,1.4362,1.4337,1.429,1.4283,1.4258,1.4238,1.4223,1.4213,1.4216,1.4215,1.4217,1.4183,1.419,1.4188,1.4203,1.4202,1.4202,1.4187,0,1.4631,1.4575,1.4547,1.4503,1.4473,1.4449,1.4423,1.4392,1.4368,1.4341,1.4315,1.4283,1.4275,1.4261,1.4245,1.4217,1.4205,1.4218,1.418,1.418,1.4191,1.4185,1.4191,1.4178,1.4184,1.4184,1.4184,0,1.4601,1.4567,1.4521,1.4479,1.4465,1.4442,1.4405,1.4379,1.4344,1.4328,1.4303,1.4283,1.4253,1.4252,1.4211,1.422,1.4204,1.4188,1.4187,1.4182,1.4181,1.418,1.4173,1.4172,1.418,1.418,1.418,0,1.4607,1.455,1.4516,1.4498,1.4447,1.4433,1.4411,1.4376,1.4355,1.4324,1.431,1.4276,1.4257,1.4232,1.4204,1.4206,1.4167,1.4163,1.4154,1.4155,1.4146,1.4147,1.4137,1.4136,1.4136,1.4136,1.4136,0,1.4589,1.4562,1.4518,1.4497,1.4468,1.4437,1.4409,1.4385,1.4355,1.4331,1.4308,1.4286,1.4251,1.4225,1.4204,1.4174,1.4166,1.4153,1.4148,1.4155,1.4157,1.4143,1.4144,1.4135,1.4136,1.4136,1.4136,0,1.4589,1.4559,1.452,1.4477,1.4465,1.4445,1.4408,1.4388,1.4365,1.4334,1.4325,1.4289,1.4258,1.4228,1.4186,1.4172,1.4143,1.4136,1.4154,1.4151,1.4145,1.4146,1.4126,1.4122,1.4124,1.4124,1.4124,0,1.458,1.4559,1.4513,1.4495,1.4474,1.4445,1.4424,1.4394,1.4373,1.4334,1.4319,1.4286,1.4258,1.4209,1.418,1.4149,1.4141,1.4136,1.4136,1.4145,1.4142,1.4143,1.4142,1.4136,1.4137,1.4137,1.4137,0,1.4566,1.4553,1.4523,1.4489,1.4465,1.4437,1.4408,1.4395,1.436,1.4339,1.4306,1.4285,1.4243,1.4211,1.4177,1.4156,1.4141,1.4138,1.4134,1.4141,1.4153,1.4147,1.4156,1.4138,1.4138,1.4138,1.4137,1.4137,1.4562,1.4543,1.4509,1.4477,1.4453,1.4427,1.4407,1.4382,1.4354,1.4317,1.4302,1.427,1.4238,1.4191,1.4171,1.4147,1.4143,1.4138,1.4137,1.4136,1.4138,1.4157,1.414,1.414,1.414,1.414,1.414,0,1.4548,1.4526,1.4497,1.4458,1.4434,1.4422,1.4391,1.4372,1.4343,1.4315,1.4289,1.4253,1.4223,1.4193,1.4162,1.4148,1.4141,1.4141,1.4142,1.4137,1.4142,1.4148,1.4148,1.4148,1.4148,1.4148,1.4148,1.4148,1.4538,1.4506,1.4489,1.4446,1.4424,1.4392,1.4375,1.4352,1.433,1.4291,1.4266,1.4246,1.4218,1.4185,1.4158,1.415,1.414,1.4142,1.4133,1.4137,1.4137,1.4136,1.4142,1.414,1.414,1.413,1.413,1.413]}]]